BREEZE-M DEB, 38600

Orbit data source: Space-Track

BREEZE-M DEB, 38600 is space debris in HEO originally from a launch on Fri, 14 Mar 2008 UTC launched from the Tyuratam Missile And Space Complex (TTMTR). Debris objects in space refer to the collection of defunct objects orbiting the Earth. Examples of debris include non-operational satellites, rocket bodies, and fragments generated from explosions, collisions, or faulty payload assembly.

Loading next visibility...
Identifier
38600, 2008-011AX
Orbit
HEO
Country
Flag of CISCIS
Related business
Manufacturer
Unknown
Mission
Spacecraft
Bus & Motor
Unknown
Mass
Unknown
Launch date (UTC)
2008-03-14 (18 years ago)
Launch vehicle
Unknown
Launch site
Tyuratam Missile And Space Complex (TTMTR)
Object type
Payload
Rocket body
Debris
Shape & HBR
Unknown shape, 0.2 m
Radar Cross Section
Medium (>0.1 m² and <1 m²)

Expand to show TLE details & history
Last TLE update: 1 week ago

TLE from 1 week ago
0 BREEZE-M DEB
1 38600U 08011AX  26167.30255657  .00000313  00000-0  99950-3 0  9994
2 38600  48.9592 183.2457 6505724  30.8969 354.8951  3.14792267174536
Epoch: 2026-06-16T07:15Z
TLE epoch observation values (Epoch: 2026-06-16T07:15:40.887Z)
Latitude
0.00002°
Longitude
169.72117°
Altitude
898.394 km
Speed
9.45 km/s
True Right ascension
12h 12m 52s
True Declination
0° 00' 00"
Sunlit
Object was in daylight at epoch
Visualization orbit readout
Latitude
Unknown
Longitude
Unknown
Altitude
Unknown
Speed
Unknown
Apparent Right ascension
Unknown
Apparent Declination
Unknown
Sunlit
N/A
Visualization observer readout
Local Sidereal Time
08:10:22
Azimuth
Unknown
Elevation
Unknown
Doppler factor
Unknown
Orbital elements
Apogee altitude
26,083.509 km
Perigee altitude
494.022 km
Semi-major axis
19,666.903 km
Eccentricity
0.65057
Inclination
48.9592°
RAAN
183.2457°
Arg. of periapsis
30.8969°
True anomaly
329.4338°
Mean anomaly
354.8951°
Eccentric anomaly
345.66807°
Mean motion
0.78694 °/min
Orbital period
457.47 mins
BSTAR
0.0009995
Loading maneuver chart data...
Computing Atmospheric mass density...
Loading historical data...
Loading historical data...
Loading historical data...
Loading historical data...
Loading historical data...
Loading historical data...
Loading historical data...

Documentation

Showing up to 5 results
|